Погода в Шойне

Погода в Шойне : погода сейчас, прогноз погоды и архив. Всё, что Вы хотите узнать о погоде в Шойне!

Поиск расширенной информации на нашем сайте:

Полезная информация: Очки ray ban заказать очки.

Другие новости

Новости СМИ2

Главная страница сайта

Новости сайта

03.07.2017

Напоминаем, что на нашем специализированном сайте Метеоцентр.Азия вы можете получить высокодетализированные автоматические прогнозы погоды по пунктам России, СНГ и мира в авиационном формате (включающие направление и скорость ветра, видимость, явления погоды, количество и форму облачности, нижнюю и верхнюю границу облачности).

Рекомендуем: Бизнес по реализации разливного пива оборудование www.kegz.ru.

Погода в Шойне - сегодня

Время (UTC), дата Ветер
(°,м/с) 
Видим.   Явления Облачность Т
(°С)
Тd
(°С)
f(%) Тe
(°С)
Pmin
(гПа)
dP
(гПа)
Po
(мм)
O2
(г/м3)
Тmin Tmax R s Состояние
почвы
00 14.02.18 220 (ЮЗ) 4000 м  слаб. ливневой снег  10/10 300 м кучево-дожд. 
[Cb calv]
-3.8 -3.8 100 -8  1022.2  0.2  766  314           
03 14.02.18 260 (З) 4000 м  слаб. ливневой снег  10/10 300 м кучево-дожд. 
[Cb calv]
-2.6 -2.6 100 -6  1022.9  0.7  767  312  -4.4    0.6  69  неравномерный
мокрый или
старый снег
100% 
06 14.02.18 230 (ЮЗ) 20000 м  {ливн. осадки}  10/10 600 м 
[Sc]
-3.5 -3.7 99 -7  1023.5  0.6  767  314           
09 14.02.18 230 (ЮЗ) 10 км  слаб. крупа{ливн. осадки}  10/10 300 м кучево-дожд. 
[Cb calv]
-3 -3.2 99 -7  1024.4  0.8  768  313           
12 14.02.18 230 (ЮЗ) 20000 м  {ливн. осадки}  9/9 300 м кучево-дожд. 
[Cb calv]
-3.2 -3.3 99 -7  1024.6  0.3  768  314           
15 14.02.18 220 (ЮЗ) 20000 м    10/10 600 м 
[Sc]
-3.6 -3.6 100 -8  1024.8  0.1  768  314           
18 14.02.18 230 (ЮЗ) 20000 м    10/10 300 м кучево-дожд. 
[Cb calv]
-3.3 -3.5 99 -7  1024.8  0.1  768  314           
21 14.02.18 230 (ЮЗ) 10 км  слаб. снег  10/8 300 м средняя 
[Frnb|As op]
-3.3 -3.5 99 -7  1024.6  -0.2  768  314           
00 15.02.18 220 (ЮЗ) 10 км  слаб. снег  10/6 300 м средняя 
[Frnb|As op]
-3.3 -3.5 99 -7  1024.5  -0.2  768  314           
03 15.02.18 220 (ЮЗ) 8{10}  20000 м  позёмок{снег}  10/10 600 м 
[Sc]
-4 -4 100 -9  1023.8  -0.6  767  314  -4      69  неравномерный
сухой снег
100% 
09 15.02.18 230 (ЮЗ) 20000 м    10/0 средняя 
[As op]
-3.7 -3.7 100 -8  1023.6  767  314           
12 15.02.18 230 (ЮЗ) 4000 м  слаб. ливневой снег  10/4 300 м кучево-дожд., средняя 
[Cb calv|As op]
-2.9 -3 99 -7  1023  -0.6  767  313           
15 15.02.18 230 (ЮЗ) 4000 м  слаб. ливневой снег  10/10 300 м кучево-дожд. 
[Cb calv]
-3.4 -3.4 100 -9  1021.8  -1.2  766  313           
03 16.02.18 260 (З) 7{12}  4000 м  слаб. снег  10/6 600 м средняя 
[Sc diur, vesp|Ac As]
-2.1 -2.1 100 -6  1018.4  -0.3  763  310           
09 16.02.18 240 (ЮЗ) 20000 м    6/0 средняя 
[Ac As]
-3.2 -3.5 98 -7  1018.1  0.1  763  312           
12 16.02.18 250 (З) 20000 м    9/3 300 м кучево-дожд., средняя 
[Cb calv|Ac As]
-3.2 -3.7 96 -7  1018.1  -0.1  763  312           
18 16.02.18 250 (З) 20000 м    10/10 600 м 
[Sc]
-3.3 -3.3 100 -7  1017.3  -0.5  763  311           
21 16.02.18 260 (З) 20000 м  {ливн. осадки}  10/10 600 м 
[Sc]
-2.9 -3.1 99 -7  1017  -0.4  762  311           
03 17.02.18 260 (З) 4000 м  слаб. ливневой снег  10/10 300 м кучево-дожд. 
[Cb calv]
-2.5 -2.5 100 -7  1016.2  -0.4  762  310  -4.6    0.2  74  неравномерный
сухой снег
100% 
06 17.02.18 260 (З) 20000 м  в посл. час ливневой снег  9/5 600 м средняя, верхняя 
[Sc diur, vesp|Ac trans|Cc]
-2.8 -2.8 100 -6  1016.2  -0.1  762  310           
09 17.02.18 280 (З) 20000 м    6/3 600 м средняя, верхняя 
[Sc diur, vesp|Ac trans|Cc]
-4.9 -4.9 100 -8  1016.5  0.4  762  313           
12 17.02.18 260 (З) 20000 м    3/3 600 м верхняя 
[Cu Sc|Cc]
-4.8 -4.8 100 -9  1016.8  0.2  762  313           
18 17.02.18 280 (З) 20000 м  {ливн. осадки}  ясно 
-6.7 -7 98 -11  1017.3  0.2  762  316           
21 17.02.18 320 (СЗ) 20000 м  в посл. час ливневой снег  ясно 
-4.4 -4.5 99 -8  1018.2  0.9  763  313           
00 18.02.18 280 (З) 20000 м  {ливн. осадки}  ясно 
-9.8 -10.1 98 -14  1018.8  0.6  764  320           
Время (UTC), дата Ветер
(°,м/с) 
Видим.   Явления Облачность Т
(°С)
Тd
(°С)
f(%) Тe
(°С)
Pmin
(гПа)
dP
(гПа)
Po
(мм)
O2
(г/м3)
Тmin Tmax R s Состояние
почвы

Для получения пояснительной информации подведите курсор к названию столбца.

ПОГОДА в Шойне - архив

Всё, что Вы хотите узнать о погоде в Шойне - удобно и подробно!

Выберите нужную дату (начиная с 1 января 2015* года) и нажмите кнопку "Найти".
Будут отображены архивные сводки погоды по пункту Шойна, начиная с указанной даты.


Отображать данные в формате CSV (для использования в таблицах Excel)


Внимание! Наш архив погоды предназначен исключительно для личного некоммерческого использования в познавательных целях. Если Вам необходимы официальные справки о состоянии погоды (для производственных, юридических, коммерческих и т.п. целей), обращайтесь в органы Росгидромета.

*Примечание: данная дата относится к архиву по метеостанциям СССР (Россия, СНГ, Балтия).
Архив по метеостанциям Зарубежной Европы и Азии (кроме Китая) хранится 10 дней, по другим регионам земного шара (Китай, Африка, Америка, Австралия, Океания) - 1 день.

Шойна - район местоположения метеостанции


Название, широта, долгота, высота метеостанции:
Шойна 67.9°ш. 44.1°д. 8 м над ур. моря [Российская Федерация]

Дополнительная информация

В oтличие oт бoльшинства пoгoдных сайтoв мы публикуем пoдрoбную метеoинфoрмацию в детальнoм прoфессиoнальнoм фoрмате.

Характеристики температуры и влажнoсти вoздуха измеряются на высoте 2 м в тени вдали oт зданий и деревьев.
Скoрoсть ветра измеряется на высoте 10 м (на урoвне рoста челoвека скoрoсть ветра ниже в 1.5-2 раза). Если метеoстанция нахoдится в гoрoде или в лесу, тo скoрoсть ветра занижена на 2-4 м/с пo сравнению с oткрытым местoм. Скoрoсть ветра над акватoриями крупных рек и oзёр, а также на вершинах хoлмoв на 2-5 м/с выше, чем в oбычных услoвиях.
Атмoсфернoе давление в разных тoчках местнoсти мoжет значительнo oтличаться oт давления на метеoстанции, в зависимoсти oт услoвий рельефа (при пoдъёме на 10 м давление пoнижается примернo на 1 мм рт.ст.).